This demonstration page uses our WeatherBlox Daily Observations layout. Learn more.

Left ArrowRight Arrow

39.08367, -84.50855

Hourly Observations for December 5, 2021

Temp ( °F °C ) Dew Point ( °F °C ) Humidity (%) Winds ( mph kmh ) Pressure ( in mb ) Visibility ( mi km ) Precip ( " mm )
12:53 am 00:53 Clear 30 -1.1 29 -1.7 96 96 N N/A 30.28 1025 10 16 N/A
1:53 am 01:53 Clear 27 -2.8 26 -3.3 96 96 N N/A 30.27 1025 10 16 N/A
2:53 am 02:53 Clear 28 -2.2 27 -2.8 96 96 N N/A 30.26 1025 10 16 N/A
3:53 am 03:53 Clear 25 -3.9 24 -4.4 96 96 S 3 6 30.25 1025 10 16 N/A
4:53 am 04:53 Clear 27 -2.8 27 -2.8 100 100 N N/A 30.23 1024 9 14 N/A
5:53 am 05:53 Clear 26 -3.3 25 -3.9 96 96 N N/A 30.22 1023 9 14 N/A
6:53 am 06:53 Clear 27 -2.8 26 -3.3 96 96 N N/A 30.23 1024 10 16 N/A
7:53 am 07:53 Cloudy 34 1.1 29 -1.7 82 82 NNE 7 11 30.19 1023 10 16 N/A
8:53 am 08:53 Cloudy 37 2.8 30 -1.1 76 76 NNE 5 7 30.17 1022 10 16 N/A
9:53 am 09:53 Cloudy 40 4.4 31 -0.6 70 70 ENE 5 7 30.15 1021 10 16 N/A
10:53 am 10:53 Mostly Cloudy 46 7.8 30 -1.1 54 54 VRB 6 9 30.11 1020 10 16 N/A
11:53 am 11:53 Mostly Cloudy 48 8.9 31 -0.6 52 52 SE 10 17 30.05 1018 10 16 N/A
12:50 pm 12:50 Cloudy 48 9 34 1 58 58 SSE 6 9 30.00 1016 10 16 N/A
12:53 pm 12:53 Cloudy 49 9.4 33 0.6 55 55 VRB 5 7 30.00 1016 10 16 N/A
1:23 pm 13:23 Mostly Sunny 52 11.1 36 2.2 55 55 SSE 8 13 29.96 1014 10 16 N/A
1:53 pm 13:53 Sunny 55 12.8 39 3.9 55 55 S 8 13 29.94 1014 10 16 N/A
2:53 pm 14:53 Partly Cloudy 58 14.4 43 6.1 58 58 S 12 19 29.89 1012 10 16 N/A
3:53 pm 15:53 Mostly Sunny 58 14.4 45 7.2 62 62 S 9 15 29.86 1011 10 16 N/A
4:53 pm 16:53 Cloudy 60 15.6 48 8.9 65 65 SSW 8 13 29.84 1010 10 16 N/A
5:53 pm 17:53 Cloudy 56 13.3 52 11.1 87 87 N N/A 29.82 1010 10 16 0.01 0.25
6:53 pm 18:53 Cloudy 57 13.9 55 12.8 93 93 S 8 13 29.81 1010 10 16 0.03 0.76
7:53 pm 19:53 Mostly Cloudy 59 15 57 13.9 93 93 S 14 22 29.80 1009 10 16 0.06 1.52
8:53 pm 20:53 Mostly Cloudy 59 15 57 13.9 93 93 S 20 31 29.79 1009 10 16 0.00 0.00
9:53 pm 21:53 Mostly Cloudy 60 15.6 57 13.9 90 90 S 16 26 29.79 1009 10 16 0.00 0.00
10:53 pm 22:53 Mostly Cloudy with Light Rain 60 15.6 58 14.4 93 93 SSW 13 20 29.78 1009 9 14 0.01 0.25
11:01 pm 23:01 Mostly Cloudy with Light Rain 60 15.6 58 14.4 93 93 SSW 13 20 29.78 1008 9 14 0.00 0.00
11:16 pm 23:16 Mostly Cloudy 60 15.6 58 14.4 93 93 S 14 22 29.77 1008 10 16 0.00 0.00
11:27 pm 23:27 Mostly Cloudy with Light Rain 61 16.1 58 14.4 90 90 SSW 14 22 29.77 1008 6 10 0.01 0.25
11:34 pm 23:34 Cloudy with Rain 61 16.1 59 15 93 93 S 12 19 29.76 1008 5 8 0.02 0.51
11:51 pm 23:51 Cloudy 61 16 59 15 94 94 S 13 20 29.74 1007 10 16 0.02 0.51
11:53 pm 23:53 Cloudy 61 16.1 59 15 93 93 S 12 19 29.74 1007 10 16 0.02 0.51

Powered by AerisWeather